Hourly Data Report for October 02, 2016

All times are specified in Local Standard Time (LST). Add 1 hour to adjust for Daylight Saving Time where and when it is observed.

TORONTO INTL A
ONTARIO

43°40'36.000" N
79°37'50.000" W
173.40 m
6158731
71624
YYZ

Download Data

Hourly Data (October 2016)
Hourly Data Report for October 2, 2016
Temp Definition
°C
Dew Point Temp Definition
°C
Rel Hum Definition
%
Wind Dir Definition
10's deg

Wind Spd Definition
km/h
Visibility Definition
km
Stn Press Definition
kPa
Hmdx Definition


Wind Chill Definition


Weather Definition


TIME
00:00 Legend Double Dagger 15.4 14.6 95 10 9 9.7 99.61     Fog
01:00 Legend Double Dagger 15.3 14.7 96 7 6 4.8 99.58     Drizzle,Fog
02:00 Legend Double Dagger 15.0 14.5 97 10 8 4.8 99.57     LegendNANA
03:00 Legend Double Dagger 15.0 14.5 97 8 5 8.1 99.51     Drizzle,Fog
04:00 Legend Double Dagger 15.1 14.6 97 24 3 9.7 99.51     Fog
05:00 Legend Double Dagger 15.0 14.5 97 25 3 11.3 99.51     Drizzle
06:00 Legend Double Dagger 15.1 14.6 97 21 5 11.3 99.55     LegendNANA
07:00 Legend Double Dagger 15.2 14.7 97 30 3 11.3 99.53     Rain
08:00 Legend Double Dagger 15.9 15.4 97 12 3 12.9 99.49     LegendNANA
09:00 Legend Double Dagger 17.3 15.2 87 14 7 19.3 99.47     LegendNANA
10:00 Legend Double Dagger 18.6 13.3 71 16 5 24.1 99.46     Mostly Cloudy
11:00 Legend Double Dagger 17.3 14.6 84 16 13 16.1 99.51     Rain
12:00 Legend Double Dagger 16.0 15.2 95 36 3 11.3 99.46     Moderate Rain Showers
13:00 Legend Double Dagger 17.9 14.6 81 17 4 24.1 99.40     Mostly Cloudy
14:00 Legend Double Dagger 18.4 14.2 76 18 8 24.1 99.35     LegendNANA
15:00 Legend Double Dagger 18.3 13.4 73 28 4 24.1 99.31     LegendNANA
16:00 Legend Double Dagger 17.7 15.4 86 18 8 24.1 99.30     Cloudy
17:00 Legend Double Dagger 17.5 15.7 89 17 5 24.1 99.34     LegendNANA
18:00 Legend Double Dagger 17.4 13.4 77 26 14 24.1 99.37     LegendNANA
19:00 Legend Double Dagger 16.5 13.8 84 32 13 24.1 99.40     Cloudy
20:00 Legend Double Dagger 15.9 14.1 89 29 15 24.1 99.44     LegendNANA
21:00 Legend Double Dagger 15.9 13.4 85 30 13 24.1 99.46     LegendNANA
22:00 Legend Double Dagger 14.9 13.5 91 28 9 24.1 99.45     Mostly Cloudy
23:00 Legend Double Dagger 14.5 13.1 91 28 10 24.1 99.47     LegendNANA

Notes on Data Quality.

Legend

  • E = Estimated
  • M = Missing
  • NA = Not Available
  • ‡ = Partner data that is not subject to review by the National Climate Archives
Date modified: